全球星 M070星 (GLOBALSTAR M070)

导读 | 豆包AI

GLOBALSTAR M070是全球星系统的备份卫星,由美国相关企业主导研发,于2007年10月20日发射。全球星系统是世界首个正式商业运营的语音移动通信低轨卫星系统,该卫星重量约450kg,设计预定寿命为7.5年,运行在倾角约52°的近地圆轨道上,主要为全球南北纬70°以内区域提供卫星通信服务,支撑系统的移动通信覆盖能力,补充星座容量。

基本信息
目录编号:
32264
目录名称:
GLOBALSTAR M070
国际标识:
2007-048B
轨道中心:
EARTH
卫星名称:
全球星 M070星
卫星全名:
全球星 M070星 (GLOBALSTAR M070)
卫星状态:
在轨 (已飞行6720 天)
发射日期:
2007-10-20 UTC
国别 :
(GLOB)
星等 :
--
轨道信息
数据来源 国际轨道数据 AOE轨道数据
星历时间 2026-03-13T14:54:35+0800
18小时前
查看轨道信息
2026-03-11T02:00:00+0800
3天前
查看轨道信息
半长轴 7791.473km 7791.474km
偏心率 0.0000636 0.0000531
轨道倾角 51.977° 51.977°
近地点辐角 59.127° 45.900°
升交点赤经 28.700° 36.431°
平近点角 87.911° 82.296°
近地点 1412.84km 1412.923km
远地点 1413.832km 1413.751km
周期 114.075分钟 114.075分钟
每日圈数 12.623315 12.623313
详细信息
固有亮度:
5
最大亮度:
7.9
平衡模式:
三轴稳定
覆盖范围:
全球
运营商:
全球星公司
运营商所在国:
美国
使用方式:
暂无
卫星简介
全球星星座由48颗卫星加8颗备份星组成。这些卫星分布在8个倾角为52度的圆形轨道平面上,每个轨道平面6颗卫星,另有1 颗备用星。轨道高度约为1414km,传输时延和处理时延小于300ms,整个系统的覆盖区为南北纬70度以内的地区。该卫星已退役。
2D轨道图
3D轨道图
轨道高度分析图
轨道倾角分析图
轨道综合分析图
查看轨道综合分析图